EW3182 Weather Reports


Display with metric or nautical units.
time (UTC)temp
F
wind
direction
speed
MPH
gust
MPH
rain 1hr
in
rain 24hr
in
rain mn
in
humidity
%
barometer
mb
20260831080053 84 292 0.0 4.0 0.00 0.00 0.00 57 1012.6
20260831074553 84 266 1.0 6.0 0.00 0.00 0.00 56 1012.5
20260831073052 84 197 0.0 5.0 0.00 0.00 0.00 55 1012.5
20260831071551 84 113 0.0 4.0 0.00 0.00 0.00 54 1012.4
20260831070050 84 266 0.0 5.0 0.00 0.00 0.00 53 1012.4
20260831064549 82 227 0.0 2.0 0.00 0.00 0.00 57 1012.6
20260831063044 81 197 0.0 0.0 0.00 0.00 0.00 60 1012.5
20260831061544 81 197 0.0 0.0 0.00 0.00 0.00 60 1012.5
20260831060043 82 197 0.0 0.0 0.00 0.00 0.00 60 1012.5
20260831054550 82 196 0.0 0.0 0.00 0.00 0.00 59 1012.6
20260831053041 81 197 0.0 0.0 0.00 0.00 0.00 61 1012.6
20260831051542 82 197 0.0 0.0 0.00 0.00 0.00 61 1012.3
20260831050033 83 197 0.0 0.0 0.00 0.00 0.00 58 1012.2
20260831044532 83 197 0.0 0.0 0.00 0.00 0.00 57 1012.2
20260831043032 84 197 0.0 0.0 0.00 0.00 0.00 55 1012.2
20260831041548 85 197 0.0 0.0 0.00 0.00 0.00 54 1012.1
20260831040039 86 197 0.0 0.0 0.00 0.00 0.00 53 1012.1
20260831034531 87 197 0.0 0.0 0.00 0.00 0.00 49 1012.1
20260831033030 88 131 0.0 0.0 0.00 0.00 0.00 48 1011.9
20260831031529 88 134 0.0 0.0 0.00 0.00 0.00 48 1011.8
20260831030029 88 207 0.0 1.0 0.00 0.00 0.00 47 1011.8
20260831024528 87 264 0.0 0.0 0.00 0.00 0.00 48 1011.5
20260831023028 88 264 0.0 0.0 0.00 0.00 0.00 46 1011.3
20260831021527 88 264 0.0 0.0 0.00 0.00 0.00 45 1011.2
20260831020026 89 264 0.0 0.0 0.00 0.00 0.00 43 1010.9
20260831014530 90 264 0.0 0.0 0.00 0.00 0.00 41 1010.7
20260831013026 91 264 0.0 0.0 0.00 0.00 0.00 38 1010.5
20260831011533 92 264 0.0 0.0 0.00 0.00 0.00 37 1010.4
20260831010024 93 285 0.0 1.0 0.00 0.00 0.00 36 1010.3
20260831004524 94 152 0.0 3.0 0.00 0.00 0.00 35 1010.3
20260831003024 95 176 0.0 3.0 0.00 0.00 0.00 35 1010.3
20260831001522 96 203 0.0 3.0 0.00 0.00 0.00 34 1010.4
20260831000021 96 269 1.0 4.0 0.00 0.00 0.00 34 1010.4
20260830234521 96 110 1.0 6.0 0.00 0.00 0.00 33 1010.5
20260830233021 97 108 0.0 5.0 0.00 0.00 0.00 32 1010.5
20260830231519 97 291 1.0 4.0 0.00 0.00 0.00 30 1010.4
20260830230017 97 121 1.0 6.0 0.00 0.00 0.00 31 1010.5
20260830224516 98 235 1.0 5.0 0.00 0.00 0.00 30 1010.6
20260830223016 98 288 0.0 4.0 0.00 0.00 0.00 30 1010.6
20260830221515 98 200 0.0 8.0 0.00 0.00 0.00 30 1010.7
20260830220019 98 96 0.0 6.0 0.00 0.00 0.00 30 1010.6
20260830214513 99 292 2.0 8.0 0.00 0.00 0.00 31 1010.7
20260830213013 100 170 1.0 10.0 0.00 0.00 0.00 30 1010.8
20260830211509 99 142 0.0 4.0 0.00 0.00 0.00 30 1011.0
20260830210006 100 141 2.0 7.0 0.00 0.00 0.00 29 1011.2
20260830204505 100 252 1.0 7.0 0.00 0.00 0.00 31 1011.3
20260830203003 100 135 1.0 8.0 0.00 0.00 0.00 32 1011.5
20260830201602 101 262 2.0 5.0 0.00 0.00 0.00 30 1011.8
20260830200056 100 157 0.0 6.0 0.00 0.00 0.00 31 1012.0
20260830194555 100 81 1.0 5.0 0.00 0.00 0.00 32 1012.1
20260830193050 99 51 1.0 9.0 0.00 0.00 0.00 32 1012.4
20260830191553 99 266 0.0 7.0 0.00 0.00 0.00 34 1012.5
20260830190045 99 242 2.0 6.0 0.00 0.00 0.00 33 1012.8
20260830184545 98 215 3.0 10.0 0.00 0.00 0.00 34 1012.9
20260830183042 98 86 2.0 9.0 0.00 0.00 0.00 34 1013.1
20260830181541 98 280 2.0 10.0 0.00 0.00 0.00 37 1013.3
20260830180052 97 150 2.0 8.0 0.00 0.00 0.00 37 1013.6
20260830174539 97 187 0.0 8.0 0.00 0.00 0.00 40 1013.8
20260830173051 97 162 0.0 5.0 0.00 0.00 0.00 41 1014.1
20260830171535 96 139 1.0 6.0 0.00 0.00 0.00 42 1014.3
20260830170032 96 131 0.0 4.0 0.00 0.00 0.00 43 1014.5
20260830164530 94 47 1.0 6.0 0.00 0.00 0.00 43 1014.6
20260830163026 94 244 0.0 7.0 0.00 0.00 0.00 46 1014.7
20260830161524 93 225 2.0 7.0 0.00 0.00 0.00 48 1014.8
20260830160022 93 278 0.0 5.0 0.00 0.00 0.00 50 1014.7
20260830154517 92 127 1.0 6.0 0.00 0.00 0.00 51 1014.9
20260830153017 92 79 0.0 3.0 0.00 0.00 0.00 51 1014.9
20260830151514 91 121 1.0 4.0 0.00 0.00 0.00 52 1014.7
20260830150021 89 212 1.0 5.0 0.00 0.00 0.00 55 1014.7
20260830144506 88 281 0.0 4.0 0.00 0.00 0.00 57 1014.8
20260830143005 88 232 0.0 3.0 0.00 0.00 0.00 58 1014.8
20260830141502 87 290 0.0 3.0 0.00 0.00 0.00 61 1014.8
20260830140105 86 249 0.0 2.0 0.00 0.00 0.00 62 1014.8
20260830134559 84 201 0.0 2.0 0.00 0.00 0.00 65 1014.7
20260830133110 83 231 0.0 2.0 0.00 0.00 0.00 68 1014.7
20260830131558 82 249 0.0 3.0 0.00 0.00 0.00 70 1014.6
20260830130056 80 239 0.0 2.0 0.00 0.00 0.00 72 1014.5
20260830124615 79 267 0.0 0.0 0.00 0.00 0.00 74 1014.1
20260830123049 0 0.0 0.0 0.00 0.00 0.00 1014.0
20260830121543 0 0.0 0.0 0.00 0.00 0.00 1013.9
20260830120039 0 0.0 0.0 0.00 0.00 0.00 1013.7
20260830114553 0 0.0 0.0 0.00 0.00 0.00 1013.6
20260830113030 0 0.0 0.0 0.00 0.00 0.00 1013.4
20260830111526 0 0.0 0.0 0.00 0.00 0.00 1013.3
20260830110021 0 0.0 0.0 0.00 0.00 0.00 1013.2
20260830104517 0 0.0 0.0 0.00 0.00 0.00 1012.9
20260830103016 0 0.0 0.0 0.00 0.00 0.00 1012.8
20260830101509 0 0.0 0.0 0.00 0.00 0.00 1012.7
20260830100004 0 0.0 0.0 0.00 0.00 0.00 1012.7
20260830094559 0 0.0 0.0 0.00 0.00 0.00 1012.7
20260830093059 0 0.0 0.0 0.00 0.00 0.00 1012.8
20260830091558 0 0.0 0.0 0.00 0.00 0.00 1012.7
20260830090108 83 171 0.0 1.0 0.00 0.00 0.00 61 1012.7
20260830084555 83 299 0.0 3.0 0.00 0.00 0.00 60 1012.6
20260830083122 83 193 0.0 3.0 0.00 0.00 0.00 60 1012.6
20260830081553 83 214 0.0 2.0 0.00 0.00 0.00 59 1012.6